Regional Weather Roundup
Issued by NWS

Home | Current Version | Previous Version | Graphics & Text | Print | Product List | Glossary Off
Versions: 1 2 3 4 5 6 7 8 9 10 11 12 13 14 15 16 17 18 19 20 21 22 23 24 25 26 27 28 29 30 31 32 33 34 35 36 37 38 39 40 41 42 43 44 45 46 47 48 49 50

000
ASUS43 KTOP 011908
RWRKS

WEATHER ROUNDUP FOR KANSAS
NATIONAL WEATHER SERVICE GOODLAND KS
200 PM CDT FRI AUG 01 2014

NOTE:  "FAIR" INDICATES FEW OR NO CLOUDS BELOW 12,000 FEET WITH NO
SIGNIFICANT WEATHER AND/OR OBSTRUCTIONS TO VISIBILITY.

KSZ001>006-013>018-027>032-041>047-012000-
NORTHWEST KANSAS

CITY           SKY/WX    TMP DP  RH WIND       PRES   REMARKS
GOODLAND       MOSUNNY   83  47  28 W5        30.19F
HAYS           SUNNY     88  54  31 NE12G17   30.10F
HILL CITY      SUNNY     91  52  26 NE10      30.11F
RUSSELL        SUNNY     89  52  28 VRB5      30.08S
$$

KSZ061>065-074>080-084>089-012000-
SOUTHWEST KANSAS

CITY           SKY/WX    TMP DP  RH WIND       PRES   REMARKS
DODGE CITY     SUNNY     86  53  32 NE7       30.14S
ELKHART          N/A     83  51  33 S2          N/A
GARDEN CITY    MOSUNNY   85  54  34 N9        30.15F
GREAT BEND       N/A     86  55  35 NE5       30.08S
LIBERAL        SUNNY     84  54  34 SW7       30.17F
PRATT          SUNNY     86  52  30 NE9       30.10S
$$

KSZ066>073-081>083-090>101-012000-
SOUTHEAST KANSAS

CITY           SKY/WX    TMP DP  RH WIND       PRES   REMARKS
CHANUTE        MOSUNNY   82  63  52 SE9G21    30.08S
COFFEYVILLE    MOSUNNY   84  64  50 S10       30.07F
HUTCHINSON     SUNNY     89  57  33 VRB7      30.06S
MEDICINE LODGE   N/A     87  59  38 CALM      30.06F
NEWTON         SUNNY     86  55  35 NW6       30.09S
PARSONS        MOSUNNY   83  64  52 VRB6      30.09S
WICHITA INTL   MOSUNNY   86  60  41 S8        30.05F
WICHITA JABRA  SUNNY     87  61  41 W8        30.06S
WICHITA MCCONL MOSUNNY   86  59  39 S13       30.06F
WINFIELD       MOSUNNY   85  66  53 S8        30.08F
$$

KSZ007>012-019>026-033>040-048>060-102>105-012000-
NORTHEAST KANSAS

CITY           SKY/WX    TMP DP  RH WIND       PRES   REMARKS
CONCORDIA      SUNNY     85  55  35 N15G23    30.07S
EMPORIA        CLOUDY    86  57  37 SW10G21   30.05S
LAWRENCE       MOSUNNY   89  60  37 S10       30.05F
MANHATTAN      SUNNY     86  59  39 W3        30.02F
MARYSVILLE     MOSUNNY   86  61  42 CALM      30.04S
OLATHE IND     PTSUNNY   85  58  39 SE9       30.07F
OLATHE EXE     PTSUNNY   82  60  47 VRB7      30.07S
SALINA         MOSUNNY   93  52  24 N17       30.05S
TOPEKA BILLARD CLOUDY    85  59  41 VRB5G17   30.05R
TOPEKA FORBES  PTSUNNY   85  58  39 S10       30.05S
$$


USA.gov is the U.S. government's official web portal to all federal, state and local government web resources and services.